Date String (YYYY-MM-DD hh:mm:ss) UTC,Instrument flags,Ambient pressure (hPa),Sample flow (lpm),Bypass flow (lpm),Sample temperature (°C),Ambient temperature (°C),ASC tube jacket temperature (°C),LED temperature (°C),Box temperature (°C),Sample RH (%),Span deviation,Mass concentration (μg/m³),Mass concentration (μg/m³),Mass concentration (μg/m³)
DateTimeUTC,F1_M11,P_M11,Q1_M11,Q2_M11,T1_M11,T2_M11,T3_M11,T4_M11,T5_M11,U1_M11,ZSPAN_M11,X2_M11,X0_M11,X1_M11
2023-02-20 08:00:00,,0815.0,5.01,0.00,22.1,20.4,00.0,31.0,23.8,09.2,0000.0,0001.45,0005.03,0000.71
2023-02-20 08:01:00,,0815.0,4.99,0.00,22.1,20.4,00.0,31.0,23.8,09.3,0000.0,0001.46,0004.07,0000.72
2023-02-20 08:02:00,,0815.1,5.01,0.00,22.0,20.4,00.0,31.0,23.8,09.3,0000.0,0001.44,0003.91,0000.72
2023-02-20 08:03:00,,0815.1,4.99,0.00,22.0,20.3,00.0,31.0,23.8,09.3,0000.0,0001.38,0003.74,0000.72
2023-02-20 08:04:00,,0815.1,5.00,0.00,22.0,20.4,00.0,31.0,23.8,09.4,0000.0,0001.36,0003.46,0000.73
2023-02-20 08:05:00,,0815.1,5.01,0.00,22.1,21.2,00.0,30.9,24.0,09.3,0000.0,0001.37,0003.17,0000.73
2023-02-20 08:06:00,,0814.9,5.01,0.00,22.2,22.4,00.0,30.9,24.2,09.1,0000.0,0001.35,0003.17,0000.74
2023-02-20 08:07:00,,0814.9,5.04,0.00,22.3,23.2,00.0,30.9,24.4,09.0,0000.0,0001.33,0003.05,0000.74
2023-02-20 08:08:00,,0814.7,5.00,0.00,22.4,22.8,00.0,31.0,24.4,09.1,0000.0,0001.33,0002.94,0000.75
2023-02-20 08:09:00,,0814.7,4.99,0.00,22.4,22.3,00.0,31.1,24.3,08.9,0000.0,0001.40,0003.01,0000.77
2023-02-20 08:10:00,,0814.9,5.00,0.00,22.4,21.8,00.0,31.1,24.3,09.1,0000.0,0001.42,0002.99,0000.79
2023-02-20 08:11:00,,0814.9,5.03,0.00,22.4,21.5,00.0,31.1,24.2,09.1,0000.0,0001.48,0003.82,0000.80
2023-02-20 08:12:00,,0814.9,5.00,0.00,22.4,21.2,00.0,31.1,24.1,09.1,0000.0,0001.49,0004.30,0000.80
2023-02-20 08:13:00,,0815.0,5.00,0.00,22.3,20.9,00.0,31.2,24.0,09.0,0000.0,0001.50,0004.29,0000.81
2023-02-20 08:14:00,,0814.9,5.00,0.00,22.3,20.7,00.0,31.2,23.9,09.0,0000.0,0001.60,0004.49,0000.83
2023-02-20 08:15:00,,0815.1,5.01,0.00,22.2,20.5,00.0,31.1,23.8,09.2,0000.0,0001.67,0004.64,0000.84
2023-02-20 08:16:00,,0815.1,5.01,0.00,22.2,20.4,00.0,31.1,23.8,09.2,0000.0,0001.64,0004.54,0000.84
2023-02-20 08:17:00,,0815.2,5.00,0.00,22.1,20.3,00.0,31.1,23.8,09.2,0000.0,0001.63,0004.41,0000.84
2023-02-20 08:18:00,,0815.2,4.99,0.00,22.1,20.2,00.0,31.1,23.7,09.1,0000.0,0001.56,0004.26,0000.82
2023-02-20 08:19:00,,0815.0,5.01,0.00,22.1,20.1,00.0,31.1,23.7,09.1,0000.0,0001.59,0004.56,0000.83
2023-02-20 08:20:00,,0815.1,5.02,0.00,22.0,20.1,00.0,31.1,23.7,09.1,0000.0,0001.57,0004.63,0000.83
2023-02-20 08:21:00,,0815.1,4.99,0.00,22.0,20.1,00.0,31.1,23.7,09.2,0000.0,0001.50,0004.45,0000.82
2023-02-20 08:22:00,,0814.9,5.00,0.00,22.0,20.1,00.0,31.1,23.7,09.1,0000.0,0001.49,0004.51,0000.82
2023-02-20 08:23:00,,0815.0,4.99,0.00,22.0,20.1,00.0,31.0,23.6,09.1,0000.0,0001.45,0004.92,0000.81
2023-02-20 08:24:00,,0815.1,4.99,0.00,22.0,20.1,00.0,31.0,23.6,09.1,0000.0,0001.45,0005.48,0000.80
2023-02-20 08:25:00,,0815.2,5.01,0.00,21.9,20.0,00.0,31.0,23.6,09.1,0000.0,0001.40,0006.37,0000.79
2023-02-20 08:26:00,,0815.3,5.00,0.00,21.9,20.0,00.0,31.0,23.6,09.1,0000.0,0001.33,0006.66,0000.77
2023-02-20 08:27:00,,0815.2,5.01,0.00,21.9,20.4,00.0,30.9,23.6,09.2,0000.0,0001.35,0007.05,0000.77
2023-02-20 08:28:00,,0815.1,5.01,0.00,22.0,21.8,00.0,30.9,24.0,09.1,0000.0,0001.34,0007.19,0000.79
2023-02-20 08:29:00,,0815.1,5.00,0.00,22.2,22.6,00.0,30.9,24.2,09.1,0000.0,0001.40,0007.72,0000.80
2023-02-20 08:30:00,,0815.4,5.01,0.00,22.2,22.2,00.0,30.9,24.2,09.2,0000.0,0001.38,0007.62,0000.80
2023-02-20 08:31:00,,0815.4,5.01,0.00,22.2,21.9,00.0,31.0,24.1,09.4,0000.0,0001.35,0007.64,0000.79
2023-02-20 08:32:00,,0815.4,5.01,0.00,22.2,21.5,00.0,31.0,24.1,09.3,0000.0,0001.37,0007.69,0000.79
2023-02-20 08:33:00,,0815.4,5.01,0.00,22.2,21.2,00.0,31.0,24.0,09.0,0000.0,0001.34,0007.56,0000.78
2023-02-20 08:34:00,,0815.6,5.00,0.00,22.2,20.9,00.0,31.0,23.9,09.0,0000.0,0001.32,0006.22,0000.77
2023-02-20 08:35:00,,0815.3,5.01,0.00,22.2,20.7,00.0,31.0,23.9,09.0,0000.0,0001.30,0006.19,0000.77
2023-02-20 08:36:00,,0815.2,5.00,0.00,22.2,20.6,00.0,31.0,23.8,08.9,0000.0,0001.29,0005.77,0000.77
2023-02-20 08:37:00,,0815.3,5.01,0.00,22.1,20.5,00.0,31.0,23.8,08.8,0000.0,0001.30,0005.90,0000.77
2023-02-20 08:38:00,,0815.1,4.99,0.00,22.1,20.4,00.0,31.0,23.8,08.9,0000.0,0001.31,0005.92,0000.78
2023-02-20 08:39:00,,0815.1,5.00,0.00,22.1,20.3,00.0,31.0,23.7,09.1,0000.0,0001.31,0005.68,0000.77
2023-02-20 08:40:00,,0815.2,5.00,0.00,22.0,20.2,00.0,31.0,23.7,09.3,0000.0,0001.27,0005.02,0000.75
2023-02-20 08:41:00,,0815.1,4.99,0.00,22.0,20.2,00.0,31.0,23.6,09.2,0000.0,0001.24,0004.87,0000.75
2023-02-20 08:42:00,,0815.4,5.00,0.00,22.0,20.1,00.0,31.0,23.6,09.0,0000.0,0001.28,0005.22,0000.75
2023-02-20 08:43:00,,0815.4,5.00,0.00,21.9,20.0,00.0,31.0,23.6,09.2,0000.0,0001.29,0005.79,0000.77
2023-02-20 08:44:00,,0815.3,5.01,0.00,21.9,20.0,00.0,30.9,23.5,09.3,0000.0,0001.32,0005.89,0000.79
2023-02-20 08:45:00,,0815.5,5.00,0.00,21.9,20.1,00.0,30.9,23.5,09.2,0000.0,0001.36,0005.83,0000.80
2023-02-20 08:46:00,,0815.4,5.00,0.00,21.9,20.0,00.0,30.9,23.5,09.1,0000.0,0001.37,0005.32,0000.81
2023-02-20 08:47:00,,0815.3,5.00,0.00,21.9,20.0,00.0,30.9,23.5,09.0,0000.0,0001.38,0004.92,0000.83
2023-02-20 08:48:00,,0815.7,5.00,0.00,21.9,20.6,00.0,30.8,23.6,09.1,0000.0,0001.37,0004.53,0000.84
2023-02-20 08:49:00,,0815.8,5.03,0.00,22.0,22.0,00.0,30.8,24.0,09.3,0000.0,0001.39,0004.19,0000.84
2023-02-20 08:50:00,,0815.8,4.97,0.00,22.1,23.0,00.0,30.8,24.2,09.2,0000.0,0001.39,0004.19,0000.85
2023-02-20 08:51:00,,0815.9,4.98,0.00,22.2,22.7,00.0,30.9,24.2,09.0,0000.0,0001.45,0004.70,0000.86
2023-02-20 08:52:00,,0815.7,5.02,0.00,22.2,22.1,00.0,30.9,24.1,09.1,0000.0,0001.47,0005.26,0000.87
2023-02-20 08:53:00,,0815.2,5.00,0.00,22.2,21.6,00.0,31.0,24.0,09.0,0000.0,0001.46,0005.00,0000.88
2023-02-20 08:54:00,,0815.5,4.99,0.00,22.2,21.3,00.0,31.0,23.9,09.1,0000.0,0001.44,0004.16,0000.88
2023-02-20 08:55:00,,0816.0,5.00,0.00,22.2,21.1,00.0,31.0,23.9,09.0,0000.0,0001.44,0004.19,0000.88
2023-02-20 08:56:00,,0815.8,5.01,0.00,22.2,20.9,00.0,31.0,23.8,09.0,0000.0,0001.44,0004.40,0000.89
2023-02-20 08:57:00,,0815.5,5.00,0.00,22.1,20.7,00.0,31.0,23.8,09.0,0000.0,0001.46,0004.54,0000.90
2023-02-20 08:58:00,,0815.8,5.00,0.00,22.1,20.6,00.0,31.0,23.8,09.0,0000.0,0001.50,0004.78,0000.90
2023-02-20 08:59:00,,0815.3,5.02,0.00,22.1,20.5,00.0,31.0,23.8,09.1,0000.0,0001.49,0004.61,0000.90
